******** Week 144 almanac for PRN-1 ******** ID: 1 Health: 0 Eccentricity: 0.01125764847 Time of Applicability(s): 503808 Orbital Inclination(rad): 0.9864239488 Rate of Right Ascen(r/s): -7.851755628e-09 SQRT(A) (m 1/2): 5153.627441 Right Ascen at Week(rad): -1.287030479 Argument of Perigee(rad): 0.8822883751 Mean Anom(rad): -2.250159193 Af0(s): 0.0003617636719 Af1(s/s): -1.091394e-11 week: 144 ******** Week 144 almanac for PRN-2 ******** ID: 2 Health: 0 Eccentricity: 0.02068424225 Time of Applicability(s): 503808 Orbital Inclination(rad): 0.9647564702 Rate of Right Ascen(r/s): -8.023191341e-09 SQRT(A) (m 1/2): 5153.625488 Right Ascen at Week(rad): -1.375679289 Argument of Perigee(rad): -1.457675356 Mean Anom(rad): -2.087303313 Af0(s): -0.0005124985352 Af1(s/s): 0 week: 144 ******** Week 144 almanac for PRN-3 ******** ID: 3 Health: 0 Eccentricity: 0.003866672516 Time of Applicability(s): 503808 Orbital Inclination(rad): 0.9725402243 Rate of Right Ascen(r/s): -7.520313251e-09 SQRT(A) (m 1/2): 5153.658691 Right Ascen at Week(rad): -0.2515926982 Argument of Perigee(rad): 0.9766296916 Mean Anom(rad): 2.865221823 Af0(s): -6.180129394e-05 Af1(s/s): -1.455192e-11 week: 144 ******** Week 144 almanac for PRN-4 ******** ID: 4 Health: 0 Eccentricity: 0.001646518707 Time of Applicability(s): 503808 Orbital Inclination(rad): 0.9609694551 Rate of Right Ascen(r/s): -7.806039438e-09 SQRT(A) (m 1/2): 5153.602539 Right Ascen at Week(rad): 0.8291791589 Argument of Perigee(rad): -3.103733739 Mean Anom(rad): -0.429528103 Af0(s): -0.0001537495605 Af1(s/s): 0 week: 144 ******** Week 144 almanac for PRN-5 ******** ID: 5 Health: 0 Eccentricity: 0.005899429321 Time of Applicability(s): 503808 Orbital Inclination(rad): 0.9595193639 Rate of Right Ascen(r/s): -7.657461821e-09 SQRT(A) (m 1/2): 5153.604492 Right Ascen at Week(rad): -0.2915537216 Argument of Perigee(rad): 1.012946013 Mean Anom(rad): 0.3958820171 Af0(s): -5.351087646e-05 Af1(s/s): 0 week: 144 ******** Week 144 almanac for PRN-6 ******** ID: 6 Health: 0 Eccentricity: 0.002628803253 Time of Applicability(s): 503808 Orbital Inclination(rad): 0.9858067612 Rate of Right Ascen(r/s): -7.840326581e-09 SQRT(A) (m 1/2): 5153.606445 Right Ascen at Week(rad): -1.295300344 Argument of Perigee(rad): -1.000580165 Mean Anom(rad): -1.88148586 Af0(s): 0.0001349077026 Af1(s/s): 1.091394e-11 week: 144 ******** Week 144 almanac for PRN-7 ******** ID: 7 Health: 0 Eccentricity: 0.01543331146 Time of Applicability(s): 503808 Orbital Inclination(rad): 0.95057314 Rate of Right Ascen(r/s): -7.897471818e-09 SQRT(A) (m 1/2): 5153.64209 Right Ascen at Week(rad): 1.848740838 Argument of Perigee(rad): -2.296099221 Mean Anom(rad): -2.911649084 Af0(s): 0.000238161084 Af1(s/s): 3.637979e-12 week: 144 ******** Week 144 almanac for PRN-8 ******** ID: 8 Health: 0 Eccentricity: 0.007122516632 Time of Applicability(s): 503808 Orbital Inclination(rad): 0.9652058786 Rate of Right Ascen(r/s): -8.034620388e-09 SQRT(A) (m 1/2): 5153.658203 Right Ascen at Week(rad): -2.3666144 Argument of Perigee(rad): 0.0792235913 Mean Anom(rad): 0.04941432987 Af0(s): -4.14520874e-05 Af1(s/s): 0 week: 144 ******** Week 144 almanac for PRN-9 ******** ID: 9 Health: 0 Eccentricity: 0.002332687378 Time of Applicability(s): 503808 Orbital Inclination(rad): 0.9539886441 Rate of Right Ascen(r/s): -7.874613723e-09 SQRT(A) (m 1/2): 5153.579102 Right Ascen at Week(rad): 0.7764774063 Argument of Perigee(rad): 1.858228974 Mean Anom(rad): 0.3800635892 Af0(s): -0.0002826278686 Af1(s/s): 0 week: 144 ******** Week 144 almanac for PRN-10 ******** ID: 10 Health: 0 Eccentricity: 0.007430553436 Time of Applicability(s): 503808 Orbital Inclination(rad): 0.9723724451 Rate of Right Ascen(r/s): -7.531742299e-09 SQRT(A) (m 1/2): 5153.638184 Right Ascen at Week(rad): -0.2543895167 Argument of Perigee(rad): -2.537287739 Mean Anom(rad): 2.02582761 Af0(s): -0.0002321316895 Af1(s/s): -1.091394e-11 week: 144 ******** Week 144 almanac for PRN-11 ******** ID: 11 Health: 255 Eccentricity: 0.0002999305725 Time of Applicability(s): 503808 Orbital Inclination(rad): 0.9615387058 Rate of Right Ascen(r/s): -8.057478483e-09 SQRT(A) (m 1/2): 5153.709961 Right Ascen at Week(rad): -1.242499721 Argument of Perigee(rad): 2.844038582 Mean Anom(rad): -0.08396634831 Af0(s): -3.466901855e-05 Af1(s/s): -3.637979e-11 week: 144 ******** Week 144 almanac for PRN-12 ******** ID: 12 Health: 0 Eccentricity: 0.008575439453 Time of Applicability(s): 503808 Orbital Inclination(rad): 0.9710541804 Rate of Right Ascen(r/s): -7.554600394e-09 SQRT(A) (m 1/2): 5153.580078 Right Ascen at Week(rad): 2.961086259 Argument of Perigee(rad): 1.237555854 Mean Anom(rad): 2.706101276 Af0(s): -0.0001228489136 Af1(s/s): -7.275958e-12 week: 144 ******** Week 144 almanac for PRN-13 ******** ID: 13 Health: 0 Eccentricity: 0.005789756775 Time of Applicability(s): 503808 Orbital Inclination(rad): 0.9683577298 Rate of Right Ascen(r/s): -7.748894201e-09 SQRT(A) (m 1/2): 5153.616699 Right Ascen at Week(rad): 0.9288212479 Argument of Perigee(rad): 0.970896738 Mean Anom(rad): -0.5674051126 Af0(s): 0.0001936942993 Af1(s/s): 7.275958e-12 week: 144 ******** Week 144 almanac for PRN-14 ******** ID: 14 Health: 0 Eccentricity: 0.001327991486 Time of Applicability(s): 503808 Orbital Inclination(rad): 0.9544500368 Rate of Right Ascen(r/s): -7.691748963e-09 SQRT(A) (m 1/2): 5153.601562 Right Ascen at Week(rad): 2.930311893 Argument of Perigee(rad): 3.04089558 Mean Anom(rad): 2.746579494 Af0(s): -5.577189941e-05 Af1(s/s): -3.637979e-12 week: 144 ******** Week 144 almanac for PRN-15 ******** ID: 15 Health: 0 Eccentricity: 0.01391983032 Time of Applicability(s): 503808 Orbital Inclination(rad): 0.929900352 Rate of Right Ascen(r/s): -8.091765626e-09 SQRT(A) (m 1/2): 5153.660645 Right Ascen at Week(rad): 0.6712630272 Argument of Perigee(rad): 1.070073315 Mean Anom(rad): -0.9647772932 Af0(s): -7.235273437e-05 Af1(s/s): 3.637979e-12 week: 144 ******** Week 144 almanac for PRN-16 ******** ID: 16 Health: 0 Eccentricity: 0.01263713837 Time of Applicability(s): 503808 Orbital Inclination(rad): 0.9710242198 Rate of Right Ascen(r/s): -7.566029441e-09 SQRT(A) (m 1/2): 5153.54834 Right Ascen at Week(rad): 2.979713115 Argument of Perigee(rad): 0.6971306022 Mean Anom(rad): 0.850126835 Af0(s): -0.0003602563232 Af1(s/s): -7.275958e-12 week: 144 ******** Week 144 almanac for PRN-17 ******** ID: 17 Health: 0 Eccentricity: 0.01372671127 Time of Applicability(s): 503808 Orbital Inclination(rad): 0.9802281045 Rate of Right Ascen(r/s): -7.897471818e-09 SQRT(A) (m 1/2): 5153.694336 Right Ascen at Week(rad): -2.285189831 Argument of Perigee(rad): -1.508871965 Mean Anom(rad): -0.0472579184 Af0(s): 0.0004439141724 Af1(s/s): 3.637979e-12 week: 144 ******** Week 144 almanac for PRN-18 ******** ID: 18 Health: 0 Eccentricity: 0.002088546753 Time of Applicability(s): 503808 Orbital Inclination(rad): 0.9702152846 Rate of Right Ascen(r/s): -7.988904198e-09 SQRT(A) (m 1/2): 5153.580566 Right Ascen at Week(rad): -1.278737396 Argument of Perigee(rad): 3.110107849 Mean Anom(rad): -2.063522492 Af0(s): 0.0002057530884 Af1(s/s): -7.275958e-12 week: 144 ******** Week 144 almanac for PRN-19 ******** ID: 19 Health: 0 Eccentricity: 0.008931159973 Time of Applicability(s): 503808 Orbital Inclination(rad): 0.9789278161 Rate of Right Ascen(r/s): -7.943188008e-09 SQRT(A) (m 1/2): 5153.631836 Right Ascen at Week(rad): -2.240270335 Argument of Perigee(rad): 1.996410458 Mean Anom(rad): 2.350029356 Af0(s): 8.365784912e-05 Af1(s/s): 3.637979e-12 week: 144 ******** Week 144 almanac for PRN-20 ******** ID: 20 Health: 0 Eccentricity: 0.005299091339 Time of Applicability(s): 503808 Orbital Inclination(rad): 0.9416508846 Rate of Right Ascen(r/s): -7.851755628e-09 SQRT(A) (m 1/2): 5153.677734 Right Ascen at Week(rad): -0.4049544499 Argument of Perigee(rad): 3.100460173 Mean Anom(rad): -1.188205939 Af0(s): 0.0004084914795 Af1(s/s): 0 week: 144 ******** Week 144 almanac for PRN-21 ******** ID: 21 Health: 0 Eccentricity: 0.02451658249 Time of Applicability(s): 503808 Orbital Inclination(rad): 0.9589980501 Rate of Right Ascen(r/s): -8.068907531e-09 SQRT(A) (m 1/2): 5153.544922 Right Ascen at Week(rad): -1.377107659 Argument of Perigee(rad): -1.026704652 Mean Anom(rad): 0.111443929 Af0(s): 0.0001236025879 Af1(s/s): 0 week: 144 ******** Week 144 almanac for PRN-22 ******** ID: 22 Health: 255 Eccentricity: 0.006885528564 Time of Applicability(s): 503808 Orbital Inclination(rad): 0.9383971675 Rate of Right Ascen(r/s): -7.863184676e-09 SQRT(A) (m 1/2): 5153.584473 Right Ascen at Week(rad): -0.3591687186 Argument of Perigee(rad): -0.8562425348 Mean Anom(rad): -1.153828816 Af0(s): -0.0003301093506 Af1(s/s): 7.275958e-12 week: 144 ******** Week 144 almanac for PRN-23 ******** ID: 23 Health: 0 Eccentricity: 0.00195646286 Time of Applicability(s): 503808 Orbital Inclination(rad): 0.967410976 Rate of Right Ascen(r/s): -7.577458489e-09 SQRT(A) (m 1/2): 5153.65625 Right Ascen at Week(rad): -0.2790740239 Argument of Perigee(rad): 2.910119972 Mean Anom(rad): -2.905099706 Af0(s): 9.044091797e-06 Af1(s/s): -3.637979e-12 week: 144 ******** Week 144 almanac for PRN-24 ******** ID: 24 Health: 0 Eccentricity: 0.01227760315 Time of Applicability(s): 503808 Orbital Inclination(rad): 0.9340229254 Rate of Right Ascen(r/s): -8.114623721e-09 SQRT(A) (m 1/2): 5153.631836 Right Ascen at Week(rad): 1.766502091 Argument of Perigee(rad): 0.8010559281 Mean Anom(rad): -1.945115353 Af0(s): 0.0002193192261 Af1(s/s): 0 week: 144 ******** Week 144 almanac for PRN-25 ******** ID: 25 Health: 0 Eccentricity: 0.01036214828 Time of Applicability(s): 503808 Orbital Inclination(rad): 0.9584347915 Rate of Right Ascen(r/s): -7.646032773e-09 SQRT(A) (m 1/2): 5153.682129 Right Ascen at Week(rad): 2.88478944 Argument of Perigee(rad): 0.9719213892 Mean Anom(rad): 2.475395959 Af0(s): 0.0002140435059 Af1(s/s): 7.275958e-12 week: 144 ******** Week 144 almanac for PRN-26 ******** ID: 26 Health: 0 Eccentricity: 0.006772518158 Time of Applicability(s): 503808 Orbital Inclination(rad): 0.9392540396 Rate of Right Ascen(r/s): -7.851755628e-09 SQRT(A) (m 1/2): 5153.635742 Right Ascen at Week(rad): 2.838414984 Argument of Perigee(rad): 0.3491529026 Mean Anom(rad): 1.826825436 Af0(s): 0.0001379223999 Af1(s/s): 3.637979e-12 week: 144 ******** Week 144 almanac for PRN-27 ******** ID: 27 Health: 0 Eccentricity: 0.01001214981 Time of Applicability(s): 503808 Orbital Inclination(rad): 0.9738824574 Rate of Right Ascen(r/s): -7.954617056e-09 SQRT(A) (m 1/2): 5153.603027 Right Ascen at Week(rad): -2.347447131 Argument of Perigee(rad): 0.6297260782 Mean Anom(rad): -0.0239568401 Af0(s): 5.426455078e-05 Af1(s/s): 2.182787e-11 week: 144 ******** Week 144 almanac for PRN-29 ******** ID: 29 Health: 0 Eccentricity: 0.001765727997 Time of Applicability(s): 503808 Orbital Inclination(rad): 0.9822114938 Rate of Right Ascen(r/s): -7.920329913e-09 SQRT(A) (m 1/2): 5153.719727 Right Ascen at Week(rad): -2.272244621 Argument of Perigee(rad): 2.294317316 Mean Anom(rad): 0.08024824253 Af0(s): -0.000369300415 Af1(s/s): -3.637979e-12 week: 144 ******** Week 144 almanac for PRN-30 ******** ID: 30 Health: 0 Eccentricity: 0.005420207977 Time of Applicability(s): 503808 Orbital Inclination(rad): 0.9357546459 Rate of Right Ascen(r/s): -8.046049436e-09 SQRT(A) (m 1/2): 5153.527832 Right Ascen at Week(rad): 1.862372145 Argument of Perigee(rad): -2.752411318 Mean Anom(rad): -2.898466437 Af0(s): -0.000400201062 Af1(s/s): -3.637979e-12 week: 144 ******** Week 144 almanac for PRN-31 ******** ID: 31 Health: 0 Eccentricity: 0.01046228409 Time of Applicability(s): 503808 Orbital Inclination(rad): 0.9548215477 Rate of Right Ascen(r/s): -7.840326581e-09 SQRT(A) (m 1/2): 5153.61377 Right Ascen at Week(rad): 1.866712681 Argument of Perigee(rad): 0.3663435242 Mean Anom(rad): 2.91957253 Af0(s): -0.0001266172852 Af1(s/s): -3.637979e-12 week: 144 ******** Week 144 almanac for PRN-32 ******** ID: 32 Health: 0 Eccentricity: 0.005416870117 Time of Applicability(s): 503808 Orbital Inclination(rad): 0.9578535566 Rate of Right Ascen(r/s): -7.794610391e-09 SQRT(A) (m 1/2): 5153.703613 Right Ascen at Week(rad): 0.7875399694 Argument of Perigee(rad): -2.374445342 Mean Anom(rad): 0.6586110563 Af0(s): -3.994473877e-05 Af1(s/s): -7.275958e-12 week: 144